Theta_e
333 331 338 345 350 353 353 352 352 353 353 353 353 354 353 353 352 351 351 350 349 349 349 350 349 349 348 348 347 348 348 349 349 349 349 348 348 347 348 347 347 349 351 351 349 349 348 347 347 345 344 343 343 343 342 342 341 341 342 343 345 345 345 347 347 348 348 350 349 348 349 349 349 348 347 348 349 349 348 348 348 344 344 348 350
332 334 338 342 349 353 353 352 352 353 352 353 354 353 353 353 352 351 351 350 349 349 349 349 348 348 348 347 347 347 347 347 348 348 348 348 347 347 347 348 352 352 351 350 349 349 349 348 347 346 345 345 343 343 342 341 340 340 339 340 341 342 342 343 344 345 345 348 348 349 349 348 348 348 348 348 348 348 346 347 348 342 341 349 351
331 334 339 342 348 352 352 353 353 353 353 352 353 353 352 352 352 351 350 349 349 348 348 347 347 347 347 347 347 347 347 347 347 347 347 347 347 347 346 349 350 350 350 349 349 349 348 347 346 346 344 343 342 341 340 339 339 338 337 337 338 338 339 341 343 343 343 345 346 345 346 347 347 347 347 348 347 347 346 347 347 347 344 349 350
332 335 339 342 346 349 352 353 353 353 353 353 353 353 353 352 351 351 350 349 348 348 348 347 347 347 347 346 346 346 346 347 347 347 346 346 347 347 347 347 349 349 349 347 349 348 347 346 345 344 342 341 340 339 338 337 336 335 335 335 335 335 337 339 341 343 342 343 345 342 339 335 341 346 346 346 346 347 345 346 347 345 345 349 350
332 336 339 342 345 346 351 352 353 353 353 353 353 353 352 352 351 351 350 349 349 348 347 346 346 347 347 346 346 347 346 347 346 347 347 346 347 347 347 347 347 348 348 347 347 347 346 346 344 343 340 339 338 337 336 334 333 332 332 332 333 334 337 340 341 341 342 343 343 339 333 335 335 345 345 344 345 345 345 345 345 346 346 346 349
333 336 339 342 343 344 348 352 353 353 353 354 354 353 353 352 351 350 350 349 349 348 347 347 346 347 346 346 346 345 345 346 346 345 345 346 346 346 347 346 347 347 347 347 347 346 346 344 343 341 339 338 336 335 334 332 330 328 328 330 332 334 338 340 340 339 341 342 340 334 335 338 338 339 345 346 345 344 344 344 345 345 345 346 346
333 336 339 342 343 343 345 351 353 353 353 354 354 353 353 352 351 350 350 349 349 349 347 347 347 345 345 345 345 345 345 346 345 345 346 345 346 346 346 346 347 347 347 346 346 345 344 343 342 341 339 338 336 334 332 330 328 327 327 330 331 335 339 338 339 339 338 335 332 333 336 337 337 337 346 346 346 346 344 344 344 345 345 345 345
332 336 339 341 342 343 345 350 353 353 353 354 354 353 352 352 351 351 350 350 349 348 347 347 347 346 344 344 345 345 345 346 345 345 345 345 345 345 346 346 347 346 346 345 345 344 343 341 340 339 338 337 335 332 330 328 327 327 328 330 332 336 338 338 337 338 336 329 332 335 336 335 336 336 347 345 346 346 345 344 343 343 343 344 344
333 335 339 341 340 342 344 348 352 353 353 354 354 353 352 352 351 351 350 349 349 348 347 347 347 347 346 345 345 344 345 345 345 345 345 344 344 345 344 346 346 346 346 345 343 342 341 341 340 339 337 335 332 330 328 328 327 329 329 330 333 337 337 337 336 334 330 330 334 334 333 333 333 335 344 344 346 345 343 344 345 343 343 343 343
330 333 336 339 339 341 344 347 352 353 353 354 353 353 352 352 351 350 349 349 349 348 347 347 347 348 347 347 346 346 346 346 346 345 344 344 344 344 345 346 346 345 345 344 343 342 339 338 337 337 336 332 330 328 327 327 328 330 329 331 334 336 336 335 334 331 326 329 328 333 337 340 331 333 342 345 344 343 342 343 343 343 343 343 342
329 331 333 335 336 340 346 348 350 351 353 353 353 353 351 351 351 350 349 349 349 348 347 346 347 347 348 348 348 348 347 347 346 345 344 344 344 345 345 346 345 344 343 342 341 339 338 337 336 337 334 332 328 327 326 325 327 329 329 330 334 335 334 331 326 319 324 327 327 328 331 337 326 333 344 344 345 344 343 343 343 342 341 341 342
331 331 332 334 337 339 345 347 350 351 352 352 352 352 351 351 350 349 349 349 348 348 347 347 347 347 347 347 348 348 348 347 346 345 344 343 344 345 345 346 345 343 342 340 339 338 336 336 337 337 334 331 327 325 325 325 326 328 328 330 333 332 330 328 319 319 320 323 327 325 321 322 322 334 344 344 345 344 343 343 343 343 342 343 342
331 331 331 331 333 337 342 346 347 350 352 352 352 352 351 351 350 350 350 349 348 348 347 346 348 349 347 348 348 348 348 347 347 345 344 344 344 345 345 345 344 342 341 340 339 338 339 339 337 336 334 330 326 324 323 324 325 326 327 329 331 331 328 325 316 318 319 321 322 320 318 320 322 342 342 343 343 343 343 343 343 344 343 343 342
329 331 330 332 332 336 337 341 345 349 350 350 351 352 351 351 350 350 350 349 348 348 347 346 347 348 347 347 348 348 348 347 346 345 344 344 344 344 344 344 343 341 340 339 338 338 337 338 338 335 332 328 326 323 322 322 324 325 327 329 330 328 324 322 321 315 318 318 321 320 319 322 321 341 340 340 340 340 341 341 342 343 342 341 341
329 328 329 330 331 334 334 338 341 343 346 348 349 351 351 351 350 350 350 349 349 349 348 347 348 347 348 349 348 348 348 346 346 345 345 344 344 345 344 343 342 340 339 338 337 336 336 335 336 334 330 326 324 323 322 322 323 324 327 328 328 326 322 311 314 312 315 318 317 319 320 321 336 340 339 338 338 338 338 339 339 339 340 340 340
323 325 325 328 328 330 334 335 334 335 341 345 346 347 348 349 349 349 349 349 349 348 349 348 348 348 348 348 347 349 347 347 345 345 345 344 344 344 343 343 342 341 339 338 336 336 335 336 336 332 329 326 323 322 320 320 322 325 326 327 326 324 321 316 310 310 311 315 315 317 319 322 338 338 335 334 335 336 336 336 337 337 337 338 338
321 322 326 326 326 328 333 336 336 332 333 337 340 342 344 346 347 348 347 347 347 348 348 348 348 348 348 348 347 345 345 346 345 345 345 344 344 343 344 342 342 341 340 338 335 335 337 338 334 331 329 327 323 321 319 319 321 323 324 325 324 323 320 316 311 309 311 314 313 316 318 324 336 335 333 332 333 332 333 333 333 334 335 335 336
318 322 326 326 327 328 330 334 337 336 337 335 334 338 340 343 343 344 344 343 345 346 346 346 346 346 344 343 342 341 343 344 344 343 343 343 344 343 343 342 341 341 339 337 336 338 337 335 333 331 329 327 324 320 318 319 320 321 322 324 323 321 319 316 308 309 312 317 313 316 318 332 336 335 333 333 332 332 331 332 332 332 333 333 334
319 322 323 324 326 327 331 333 336 339 339 339 339 338 334 338 340 340 341 341 342 343 344 341 341 341 340 339 337 336 337 339 341 342 340 339 338 339 342 343 341 340 338 337 336 337 335 334 332 331 329 327 323 320 318 318 319 319 320 321 319 317 315 309 304 305 309 312 313 314 319 333 334 334 334 333 332 331 331 331 331 331 331 332 332
316 322 326 324 325 329 331 335 337 339 340 341 340 339 334 331 335 337 337 338 339 340 339 337 337 335 336 334 331 331 332 335 331 335 335 337 335 333 338 341 342 341 337 335 335 336 334 333 332 330 328 326 323 319 316 316 317 317 317 317 315 312 302 301 301 304 304 309 314 310 326 332 333 333 333 333 332 332 331 329 328 330 329 330 330
313 314 320 325 327 330 331 333 336 339 340 341 341 340 339 330 331 331 333 334 335 336 336 332 330 330 330 329 326 331 333 335 333 337 330 335 329 327 335 339 340 338 336 338 335 336 334 333 331 330 328 325 320 317 316 318 317 315 314 312 309 300 299 300 301 304 304 304 309 310 329 330 330 332 332 332 330 330 329 329 328 327 328 329 328
309 313 313 317 324 329 332 333 335 337 339 340 341 341 340 334 338 338 335 335 331 330 333 333 328 329 325 329 330 330 332 333 335 332 334 333 329 324 329 334 337 333 334 336 335 335 334 332 331 329 327 321 314 299 297 305 310 311 310 307 296 295 296 297 298 300 302 304 306 315 329 328 328 330 330 329 328 328 327 327 327 327 327 325 326
302 306 310 313 317 324 329 333 334 336 337 339 339 339 340 339 338 339 338 332 333 331 335 333 332 331 331 332 329 331 332 333 334 333 333 327 330 322 326 330 334 331 331 333 336 335 333 332 330 328 323 315 300 295 291 289 290 302 300 294 292 293 294 295 296 295 297 303 303 317 327 328 328 328 327 326 326 326 325 326 325 327 327 325 322
297 298 302 309 312 316 323 330 333 335 336 337 338 339 339 339 339 339 338 337 337 335 336 336 335 333 333 332 332 331 333 333 329 324 326 330 329 321 324 326 328 326 325 328 330 333 332 331 328 323 312 303 296 294 291 289 290 289 292 291 290 291 292 294 294 293 293 300 301 317 324 328 328 327 328 327 326 326 325 325 325 325 324 325 324
296 298 300 299 301 305 311 322 330 333 334 336 336 337 338 338 338 339 338 337 336 337 337 336 336 335 334 332 331 329 332 333 333 331 331 330 326 326 325 324 323 323 321 323 322 324 321 316 312 306 300 300 296 291 290 288 289 290 291 291 291 290 291 292 292 293 293 292 299 316 322 325 328 328 328 327 326 324 323 324 326 326 325 324 326
296 297 298 298 299 301 305 312 322 330 333 335 336 336 336 337 336 337 338 338 339 338 334 334 336 336 335 335 332 330 329 331 330 329 326 325 327 324 323 324 322 320 322 321 319 318 315 313 310 305 298 296 294 292 292 292 289 289 290 290 290 290 290 291 292 292 293 293 298 310 318 321 325 327 328 328 327 325 322 324 325 325 325 324 324
295 296 298 298 300 301 302 305 315 325 331 333 334 335 335 335 337 336 335 334 332 333 336 335 333 333 335 333 333 332 331 329 326 325 324 323 323 323 324 323 323 321 320 320 316 312 313 312 309 304 297 296 294 292 291 289 289 290 290 290 290 290 290 290 291 291 291 293 297 305 311 318 321 324 326 328 328 326 323 323 325 326 325 324 323
295 296 298 299 300 301 302 304 310 321 328 331 333 333 333 334 334 332 334 332 332 332 331 332 333 331 332 332 331 334 333 330 327 324 326 322 323 323 320 319 319 319 317 319 316 312 311 310 308 302 299 296 296 294 292 290 289 289 291 291 290 290 288 289 289 290 291 293 295 300 307 315 320 321 324 326 329 329 326 324 325 326 326 325 324
295 296 297 299 300 302 304 308 311 318 324 328 330 331 330 331 331 332 332 330 333 334 332 327 329 330 330 327 327 327 327 326 325 327 325 323 322 320 319 318 318 318 317 316 318 315 310 309 308 305 298 297 296 296 294 291 289 289 290 291 290 290 290 290 290 290 290 292 292 297 305 313 317 320 322 324 327 329 328 326 326 326 326 325 324
294 296 297 299 300 303 307 310 312 315 319 325 327 327 327 328 329 331 331 331 332 332 330 329 327 326 328 326 327 327 326 325 323 321 321 320 321 319 318 319 318 315 314 315 313 314 312 308 306 303 301 297 297 295 295 293 291 290 290 291 290 290 289 289 290 291 291 292 292 295 303 310 314 318 322 324 326 327 329 328 328 327 326 326 325
294 295 297 298 300 303 308 312 314 314 316 321 322 324 324 326 326 327 328 330 330 330 329 329 326 325 325 326 326 324 323 321 321 320 320 319 317 317 317 316 316 314 315 315 311 313 310 310 308 306 303 299 298 293 295 295 291 290 290 291 290 289 290 289 290 290 292 293 292 293 296 304 308 314 318 321 324 326 327 328 328 328 327 327 326
293 295 296 298 300 302 307 311 313 315 316 316 317 320 322 321 322 324 326 327 327 329 328 324 325 328 325 323 324 322 320 320 321 319 320 316 315 317 317 315 316 315 314 313 311 309 309 307 306 305 303 301 295 293 291 294 291 289 288 290 289 289 290 290 290 291 292 293 292 293 294 296 301 307 312 317 322 325 326 327 328 328 328 327 327
294 294 296 298 299 301 305 309 311 312 313 314 315 314 315 317 318 319 321 322 324 324 326 325 326 326 325 325 325 324 324 323 322 321 317 318 317 316 315 314 314 314 313 311 310 308 308 307 305 304 302 299 297 295 292 291 291 289 288 289 288 289 289 289 290 290 291 292 292 292 294 294 295 301 306 311 315 320 323 326 327 326 327 327 327
293 294 295 297 299 300 303 307 308 310 312 313 313 314 314 315 316 317 316 318 318 318 317 319 320 321 322 322 323 323 323 324 323 321 320 316 315 315 315 315 315 313 311 309 309 309 308 307 305 305 303 302 300 297 295 295 292 289 289 288 288 288 287 288 289 289 289 291 292 292 293 293 293 295 297 304 309 313 317 322 325 325 325 326 327
292 293 294 295 297 298 301 304 306 309 311 312 313 313 314 314 315 315 315 315 315 315 315 315 315 315 316 316 318 319 319 319 319 319 319 316 314 313 312 311 310 309 309 309 311 309 309 309 305 306 300 300 299 295 294 293 292 294 291 289 289 288 287 288 287 288 289 289 289 290 293 293 294 294 296 295 300 305 311 317 320 322 323 324 325
291 292 293 295 296 297 299 301 303 306 308 309 310 311 311 311 311 311 312 312 311 311 311 311 312 312 312 312 313 313 315 316 316 317 315 314 313 313 311 309 309 310 310 309 309 309 308 307 304 306 303 301 298 299 292 293 291 292 290 289 288 289 288 286 288 288 288 287 288 289 292 293 293 293 298 294 295 297 306 310 315 318 320 320 321
291 291 292 293 295 296 297 298 299 302 305 307 308 307 307 307 307 306 307 307 306 306 307 307 307 308 308 308 309 310 311 312 313 314 314 313 312 311 309 308 308 309 309 307 307 306 307 306 302 301 304 303 298 299 295 291 291 290 288 288 287 288 288 288 288 288 288 288 287 288 289 291 292 298 293 292 293 294 299 306 310 313 313 314 316
291 291 291 292 293 294 295 296 297 299 301 303 304 304 304 304 304 303 303 303 303 303 303 303 303 304 304 304 305 305 307 309 310 310 310 310 310 309 308 309 309 308 307 306 304 303 303 304 303 298 298 301 299 298 298 294 290 290 289 288 288 287 288 287 288 292 288 289 288 288 289 289 290 293 293 291 291 293 294 298 303 304 305 308 313
290 290 290 291 292 293 294 295 295 296 298 300 301 301 301 302 302 301 300 300 300 300 300 300 300 300 300 301 302 302 303 305 307 307 307 307 307 307 307 306 307 307 305 304 302 302 302 302 302 300 296 294 294 295 294 293 292 290 289 289 287 287 288 286 288 287 288 288 289 291 288 290 289 291 291 290 290 290 292 293 292 294 295 305 310
289 289 290 290 291 292 293 293 294 295 296 297 298 299 298 297 297 298 297 297 297 296 297 296 296 297 298 298 298 299 300 300 302 304 304 304 304 303 304 305 305 306 305 304 302 302 302 301 299 299 295 294 292 292 292 293 292 291 290 290 287 286 287 287 287 288 289 288 289 287 288 289 287 288 288 289 291 289 290 290 292 292 293 297 304
288 288 288 289 289 290 291 290 292 294 294 294 295 295 295 294 294 293 292 294 294 294 293 293 293 293 294 295 295 295 296 297 299 299 300 301 301 301 300 301 303 303 303 302 302 300 300 299 298 296 296 294 294 292 294 294 292 292 290 288 288 287 289 288 288 288 288 288 287 287 288 288 288 287 288 287 287 287 288 289 290 291 292 290 294
286 286 287 287 288 289 289 289 291 292 292 293 293 293 293 293 292 291 291 291 290 290 290 290 290 291 291 291 292 293 293 293 295 296 297 298 298 298 298 298 299 300 300 300 299 298 298 297 297 296 294 295 292 291 293 293 291 290 288 287 286 287 286 287 287 288 287 287 287 288 288 287 288 288 286 285 286 286 286 287 286 289 289 290 291
285 285 286 287 287 288 288 289 289 290 291 292 293 292 292 292 292 290 291 290 290 290 289 289 289 289 289 289 289 289 290 290 291 292 293 294 294 295 295 295 294 296 296 296 296 296 296 296 296 295 292 290 289 290 291 292 290 288 289 287 285 285 289 286 284 285 287 288 286 287 287 286 288 287 286 285 287 286 286 286 286 287 287 288 288
284 285 285 285 286 287 287 288 288 289 289 290 292 291 292 291 291 291 290 290 289 290 289 289 288 288 287 288 288 288 289 289 289 290 291 292 292 292 292 292 292 293 293 292 292 292 292 293 294 294 293 291 290 288 290 290 289 290 291 288 285 283 286 287 282 285 282 284 285 286 286 288 287 286 285 286 287 287 287 286 286 287 287 287 288
283 283 284 284 285 285 286 287 287 288 288 289 289 289 290 290 289 289 289 288 288 287 287 286 286 287 286 286 286 287 287 288 288 289 290 290 290 291 291 291 291 291 291 291 290 290 290 290 292 293 293 292 291 291 290 290 290 291 291 287 288 287 286 285 285 290 283 286 285 284 285 286 286 286 286 287 286 287 287 286 287 286 287 287 287
283 283 283 283 284 284 285 286 286 287 287 287 288 289 288 288 288 287 286 285 284 284 283 283 283 284 284 284 285 285 286 286 287 287 288 288 288 289 289 289 290 290 290 290 290 290 290 290 290 291 291 292 291 290 290 291 291 292 291 290 291 288 286 286 286 284 284 284 286 283 284 284 284 286 286 286 287 287 287 287 287 287 287 287 287
282 282 283 283 283 284 284 285 285 285 286 286 287 288 287 286 286 285 284 284 282 283 283 283 283 282 283 283 283 284 284 284 285 285 286 287 287 287 287 288 288 288 289 289 289 289 289 289 289 290 290 291 290 289 289 289 290 291 291 292 290 289 289 286 284 285 284 285 283 285 288 285 284 284 286 286 287 286 287 286 287 287 287 287 287
281 282 282 282 282 282 283 283 284 284 284 285 286 287 285 285 284 284 284 282 282 281 282 282 282 283 282 282 282 283 283 283 283 284 284 285 285 285 286 286 286 286 287 287 288 288 289 289 289 288 289 289 289 288 288 289 287 288 289 290 289 290 289 288 287 285 284 283 286 285 284 285 284 284 285 286 286 286 286 286 286 287 286 287 287
281 281 281 281 282 282 282 282 282 283 283 284 284 284 285 283 283 282 281 282 282 282 282 282 282 282 281 281 281 282 282 282 283 283 283 283 284 284 284 284 284 285 285 286 286 287 287 287 287 287 287 287 287 288 287 287 287 288 288 287 288 288 287 288 287 287 284 283 284 285 286 285 284 284 285 285 285 286 286 287 287 287 287 287 287
280 281 281 281 281 281 282 282 281 282 282 282 283 282 282 283 282 281 280 280 280 280 280 280 280 280 280 280 280 281 281 281 281 282 282 282 282 283 283 283 283 283 284 284 284 285 285 285 286 286 286 286 286 286 286 285 286 286 286 287 286 287 286 286 286 286 285 285 283 283 285 285 284 285 284 285 285 286 286 286 286 286 286 286 286
279 280 280 280 280 280 281 280 280 281 281 281 282 281 282 281 281 281 280 280 279 279 279 279 279 279 279 279 279 279 280 280 280 281 281 281 281 282 281 282 282 282 282 282 282 283 284 284 284 285 285 285 285 284 285 284 284 284 284 285 284 285 286 285 285 286 285 284 284 285 285 286 286 286 288 286 286 286 286 285 285 286 286 286 286
Wind_Speed
8 5 5 9 9 10 12 14 13 12 11 12 12 13 13 13 12 12 11 11 11 11 11 10 9 10 10 10 10 10 11 10 10 10 9 9 8 8 7 6 6 9 11 10 10 11 11 12 12 11 12 12 12 12 12 12 13 12 12 12 13 13 13 13 13 12 12 12 11 10 11 11 11 10 10 10 11 11 10 9 7 5 4 7 10
10 8 6 7 10 9 12 13 14 13 11 11 11 12 13 13 12 11 11 11 11 11 11 10 10 9 9 10 10 10 10 9 10 9 9 9 8 7 7 8 10 8 9 9 10 12 13 12 12 12 12 12 12 12 13 13 13 13 13 13 12 12 12 12 11 11 11 11 11 11 10 11 10 10 11 11 11 11 10 9 9 5 3 10 10
5 6 6 9 10 10 11 12 13 13 12 12 11 11 11 11 11 12 11 11 11 11 11 11 10 9 9 9 9 9 8 9 9 8 8 8 7 7 7 8 7 7 9 9 10 14 13 13 13 13 13 13 13 14 14 14 14 14 13 13 12 11 11 10 9 9 9 9 9 9 10 9 10 10 10 11 11 11 9 8 8 7 6 12 9
8 8 7 9 11 9 10 13 13 13 11 10 10 10 11 11 11 11 11 11 11 10 10 10 11 10 10 10 9 9 9 8 8 8 7 7 7 6 7 6 6 7 8 9 11 13 13 13 13 13 13 13 13 14 14 14 13 13 13 12 12 11 10 10 9 9 9 8 8 8 5 4 4 9 10 10 10 11 9 9 9 11 11 12 13
7 6 7 8 8 9 12 11 13 13 12 11 10 11 12 12 11 10 11 10 10 10 10 10 9 10 10 10 10 10 9 9 8 8 8 7 7 7 6 5 5 7 8 9 10 12 13 14 13 12 12 12 13 13 13 13 13 12 12 11 10 10 9 9 9 8 6 7 7 6 4 4 3 6 9 9 10 10 9 9 10 11 11 11 13
7 6 7 7 7 7 12 12 12 13 13 12 12 11 12 13 12 11 11 11 10 9 9 8 8 9 9 9 10 9 9 8 8 7 6 6 6 6 5 5 6 8 9 8 10 11 12 13 11 10 10 11 11 11 11 11 11 10 10 9 9 9 9 9 8 6 6 7 7 4 4 4 4 2 8 8 9 9 9 9 10 10 11 12 13
6 6 6 7 6 7 11 12 11 13 12 12 13 13 14 13 12 12 12 11 10 9 8 8 8 8 8 8 9 8 8 8 7 7 6 5 5 4 4 5 7 8 9 8 10 10 11 12 10 8 9 10 10 10 10 10 10 9 8 8 7 7 8 8 8 8 7 5 4 3 4 4 4 3 5 7 8 10 10 9 9 10 11 12 13
4 5 7 6 6 7 11 12 11 12 12 10 12 12 14 14 13 13 12 11 10 10 9 8 8 8 7 8 7 7 7 6 6 6 5 5 4 3 4 5 7 8 9 8 8 9 9 10 9 9 9 10 11 11 10 10 9 8 8 7 6 6 7 8 7 7 7 4 3 3 3 3 4 3 3 7 9 10 10 10 9 9 10 10 8
6 5 6 6 5 9 10 11 11 12 13 10 11 10 12 13 13 13 12 11 10 10 9 9 9 9 9 7 7 6 6 6 5 5 4 4 3 3 3 5 6 7 8 8 8 8 8 8 8 8 8 9 10 10 10 10 9 8 7 6 6 7 8 8 8 7 5 3 4 3 3 2 3 3 4 6 9 9 10 8 7 9 9 7 8
4 4 4 5 4 9 10 10 11 12 13 12 11 10 13 11 12 12 12 10 11 10 10 9 10 9 9 9 9 8 7 7 6 5 4 4 3 2 3 5 5 5 7 6 7 8 6 7 6 7 8 9 9 9 9 9 8 8 7 7 7 7 8 8 8 6 4 4 3 4 4 5 2 2 3 9 9 10 9 8 5 4 3 7 9
3 3 3 3 4 8 10 11 10 11 12 12 12 12 13 12 11 12 12 11 11 10 10 10 11 10 10 10 9 9 8 7 6 6 5 4 3 3 5 5 6 5 5 4 5 4 4 5 5 7 8 8 9 9 9 8 8 8 7 7 8 8 8 8 7 4 4 3 3 4 3 5 3 1 6 6 8 8 7 6 5 2 5 6 8
3 3 3 3 4 7 9 10 9 9 10 11 11 11 13 12 13 12 12 11 11 11 10 10 11 10 10 9 9 9 8 7 7 7 6 5 4 4 5 6 6 5 3 3 4 3 1 3 7 8 8 8 9 8 8 8 7 7 7 7 8 9 9 8 5 4 3 4 4 2 2 2 2 1 7 7 7 8 7 6 5 4 3 7 8
4 3 3 3 3 6 8 10 8 9 9 10 11 11 13 13 13 12 11 11 11 10 10 9 9 8 9 9 9 9 7 8 8 8 7 6 5 6 6 6 6 5 7 8 7 6 7 9 6 8 8 9 8 7 7 7 7 6 6 7 8 8 8 8 4 4 4 4 3 3 3 2 2 3 6 6 8 9 10 10 8 6 5 6 8
4 5 4 4 4 6 9 9 9 9 10 10 10 11 12 10 11 11 10 9 9 9 10 9 9 8 9 8 8 8 6 7 7 8 8 8 6 7 7 7 6 6 6 6 6 6 4 6 7 8 9 9 8 7 7 5 6 5 6 7 7 7 7 5 5 3 4 4 3 3 3 3 2 3 4 4 4 5 7 8 10 9 9 7 7
5 5 4 4 4 4 9 9 9 8 9 9 10 11 11 10 10 10 9 8 8 8 9 8 7 9 8 6 7 7 6 6 7 7 8 8 8 8 9 7 6 6 5 4 4 2 2 1 5 9 9 8 7 7 7 5 5 5 6 7 7 7 6 4 4 3 4 3 3 3 4 4 6 3 5 4 3 4 5 7 8 7 6 6 8
4 4 3 4 4 3 5 7 9 8 8 9 9 10 10 9 10 9 9 8 7 8 8 7 7 6 7 6 7 4 6 6 7 8 7 8 8 8 8 9 7 6 5 4 3 3 1 6 10 8 8 7 7 7 7 5 5 6 7 7 7 7 6 4 3 4 4 4 4 3 4 4 8 5 2 2 3 4 4 5 5 5 5 5 6
3 3 3 3 3 3 4 4 5 8 7 8 9 9 10 9 9 9 9 8 8 7 8 7 7 7 6 5 5 2 5 6 8 9 9 7 7 7 6 7 8 6 5 2 2 6 6 11 8 8 7 7 7 6 6 5 5 6 6 7 7 7 7 5 4 3 4 3 3 4 5 4 7 5 2 1 2 3 3 3 4 3 3 3 4
3 1 1 1 1 2 2 3 4 4 4 5 7 9 9 9 8 9 8 7 8 7 7 7 6 6 5 4 1 3 5 4 5 8 7 5 4 4 5 6 5 4 4 3 4 9 9 9 8 8 7 8 7 6 6 5 6 7 7 8 8 7 7 6 4 3 4 4 4 3 4 6 8 6 2 3 2 3 4 3 4 4 5 3 2
4 3 3 2 2 1 1 2 3 3 4 3 3 5 8 9 8 8 8 7 7 7 6 6 5 4 3 2 3 4 5 4 4 5 4 5 3 4 6 5 4 5 2 3 1 9 10 8 8 7 7 7 6 6 6 6 6 7 8 8 8 7 7 5 3 4 4 4 4 5 5 8 5 6 7 7 4 2 2 3 3 4 5 5 5
3 3 2 2 1 1 1 2 3 4 4 4 3 3 5 8 8 8 8 8 7 7 7 5 5 4 3 3 4 3 4 4 5 4 5 5 4 5 5 4 5 6 4 2 2 9 8 8 7 7 7 7 7 7 7 5 6 7 7 7 7 6 4 3 3 3 3 4 3 4 6 9 5 4 5 5 4 4 3 2 2 3 3 4 4
4 3 1 0 1 0 1 2 3 4 5 5 4 4 5 7 6 8 9 9 8 8 7 6 5 4 3 3 3 2 2 2 3 3 4 4 6 7 4 4 5 6 6 5 7 8 8 8 7 7 7 9 9 9 9 9 9 8 7 7 6 5 3 3 4 3 3 3 4 4 7 7 4 3 2 3 3 2 3 3 2 3 2 3 3
7 6 4 2 0 1 2 3 3 4 4 4 4 5 4 6 5 5 5 6 7 7 6 4 5 3 3 3 2 2 2 2 3 3 2 4 5 7 5 5 5 4 10 8 6 7 7 7 7 7 8 9 9 5 4 6 8 8 7 6 4 3 3 3 3 3 3 3 3 5 8 5 3 1 1 1 2 3 3 3 3 2 2 2 3
8 9 8 5 4 2 2 4 5 4 5 5 4 4 5 5 5 5 5 6 5 5 4 4 3 3 3 3 3 3 3 2 3 4 3 4 6 8 5 4 3 6 8 8 6 8 7 6 7 9 9 9 6 4 4 3 4 6 6 4 3 3 2 2 2 2 2 2 2 6 7 5 4 1 1 1 0 1 2 2 2 2 2 2 3
6 6 8 6 6 5 5 4 5 5 5 5 4 4 4 4 5 5 4 4 5 4 5 6 5 4 5 4 3 4 4 3 4 7 7 4 4 5 10 5 2 1 8 6 5 8 7 6 8 8 6 4 5 3 3 3 3 3 3 3 3 2 2 2 2 2 2 2 2 7 6 5 4 3 2 1 1 0 1 2 2 2 2 1 2
6 7 5 8 7 6 6 6 4 4 5 5 5 5 4 4 5 5 5 4 4 6 7 5 4 5 6 4 4 3 4 4 5 4 5 5 2 4 2 2 2 1 6 4 5 5 5 4 4 4 3 4 4 3 3 3 3 3 3 4 3 2 2 2 2 2 2 2 3 5 6 5 4 3 3 2 2 1 2 3 3 2 1 2 2
6 7 9 8 9 7 6 6 6 5 5 5 5 4 4 4 3 4 5 5 7 7 3 3 6 9 7 6 6 4 4 4 3 4 2 3 4 5 2 4 6 2 1 5 5 5 4 4 4 3 2 3 4 3 3 3 2 3 3 3 3 3 2 2 2 2 2 3 3 6 5 6 5 4 3 3 4 2 2 4 3 4 2 2 2
8 7 7 7 7 7 7 7 6 5 6 5 4 4 4 3 3 3 2 4 3 1 5 7 4 1 3 7 7 7 6 5 2 2 1 1 1 4 3 5 6 6 4 5 5 4 4 4 4 3 2 3 3 3 3 3 3 3 3 3 3 2 3 3 3 2 3 3 4 7 6 6 6 5 4 4 4 4 4 4 5 6 5 3 2
6 9 8 8 8 10 8 6 5 5 3 4 4 4 3 3 2 3 3 1 1 3 2 3 1 2 5 4 4 5 7 7 6 3 5 2 3 4 2 0 1 4 4 2 6 5 5 4 4 3 3 2 3 2 2 2 3 2 2 3 3 3 3 3 3 3 3 3 3 6 8 8 7 7 6 6 6 6 5 5 5 6 7 5 4
11 12 10 9 10 9 8 7 4 2 2 2 3 3 3 3 3 3 2 2 3 6 5 1 0 1 0 2 4 2 3 4 3 2 4 5 3 3 2 0 3 2 5 5 6 6 5 5 4 4 3 3 2 2 1 1 2 2 2 3 3 4 4 3 3 3 3 3 4 5 9 10 10 8 7 7 7 8 7 7 7 7 7 6 5
9 8 10 10 10 10 9 8 4 1 2 2 1 2 2 2 2 1 2 2 2 1 1 4 0 1 0 2 1 2 4 6 5 5 3 2 4 3 3 4 5 1 2 5 3 5 5 4 4 3 4 3 3 1 1 0 1 1 1 1 2 2 3 3 4 4 4 4 3 4 8 11 12 11 9 8 8 8 8 8 8 8 7 8 6
8 10 10 10 10 10 10 9 7 2 2 2 2 2 2 2 1 0 0 1 1 1 1 2 4 3 3 2 3 4 4 4 5 4 3 3 2 2 1 2 4 5 4 4 2 2 2 3 4 4 4 3 2 0 1 0 1 1 0 0 1 2 3 2 2 3 4 4 3 3 4 8 11 12 12 10 9 8 9 9 9 9 9 7 7
10 11 9 8 10 11 10 10 8 6 5 3 3 3 3 3 2 1 0 0 1 2 4 3 3 4 1 3 4 3 3 3 5 3 4 3 2 2 3 5 6 4 3 3 5 5 4 3 3 3 2 2 1 0 1 1 2 2 2 1 1 2 2 3 3 4 4 4 4 4 4 5 7 10 12 11 10 9 8 8 8 10 8 6 6
6 7 9 8 10 10 9 10 9 8 8 7 6 5 4 5 5 5 5 6 4 3 2 3 2 2 2 2 2 2 2 4 4 4 4 4 2 1 2 1 2 2 2 1 3 3 4 4 4 3 3 3 1 0 1 1 1 2 2 2 2 2 2 3 3 4 4 4 5 4 4 4 4 7 10 10 11 11 10 8 7 7 6 5 6
7 7 8 11 9 7 7 7 9 10 9 8 8 7 6 7 7 6 7 7 7 8 8 7 7 7 6 7 6 6 3 0 3 4 4 4 4 5 4 4 3 3 3 3 4 3 2 3 3 3 2 2 2 1 0 3 2 2 2 2 3 3 2 2 1 2 3 4 4 4 4 5 4 4 5 9 10 11 11 9 8 6 6 6 6
7 9 10 9 9 9 7 8 9 10 11 10 10 9 8 9 8 8 9 9 8 9 9 9 9 9 8 8 9 7 6 6 7 3 0 1 0 0 1 3 1 1 3 3 4 2 3 4 4 4 2 1 2 1 2 3 3 4 3 2 3 3 2 3 3 3 3 3 3 3 4 4 4 4 5 5 7 9 10 11 10 9 8 7 7
9 8 7 8 9 10 9 9 10 11 11 10 10 10 10 9 9 9 9 9 9 10 9 8 8 8 10 11 12 10 9 9 5 4 5 4 4 4 3 3 4 3 2 2 1 2 3 4 3 5 5 4 1 3 2 3 2 4 3 3 2 2 4 3 4 4 3 2 2 3 3 4 3 4 4 5 5 6 10 10 10 10 9 8 8
7 9 9 8 10 10 10 11 11 10 10 11 11 11 11 11 11 10 10 11 10 9 8 8 10 10 8 8 7 9 10 10 9 8 6 5 5 5 4 4 3 4 4 4 4 5 5 4 4 5 3 0 2 3 3 2 2 2 3 3 3 2 4 3 4 4 3 4 4 3 3 3 3 4 4 4 4 5 7 9 10 10 9 9 9
7 8 8 7 7 7 8 9 9 9 8 8 9 10 10 10 10 10 11 12 11 10 9 9 10 9 9 10 9 10 10 10 11 10 10 9 8 6 5 5 5 5 5 4 4 4 4 3 3 3 4 4 3 3 4 3 3 4 4 3 4 3 4 4 3 2 3 5 4 4 4 3 3 5 4 3 3 5 4 6 8 9 9 9 10
7 8 8 7 7 8 8 10 10 9 8 8 7 8 9 10 10 10 12 12 10 10 10 11 9 9 10 10 11 10 10 10 11 10 10 8 8 7 6 7 6 4 5 5 5 5 5 4 4 2 4 3 2 1 0 2 3 3 4 4 3 4 4 3 3 4 5 4 4 4 2 5 4 4 4 3 4 4 4 5 5 5 6 9 11
8 8 8 9 9 9 7 10 10 7 6 7 7 8 9 9 10 10 12 10 9 9 10 9 8 9 9 10 10 10 9 8 9 8 9 8 8 7 7 7 6 5 7 7 6 5 4 4 4 3 3 2 2 2 2 1 1 3 4 4 3 4 5 4 4 5 5 4 5 3 5 5 4 4 4 4 4 4 4 4 4 6 5 6 9
9 9 9 10 9 8 10 11 7 8 9 8 8 8 7 7 10 11 9 7 7 8 10 8 9 8 8 9 10 9 10 12 11 10 9 7 7 7 8 7 6 7 8 6 4 5 5 4 3 3 2 1 1 1 1 2 2 4 2 3 5 3 5 3 5 6 6 5 3 4 5 4 5 5 4 4 4 4 4 4 4 5 5 4 6
9 8 9 7 6 7 10 7 7 9 9 8 7 8 6 6 8 7 7 8 8 9 9 9 9 9 11 11 10 10 11 10 10 10 10 10 9 9 10 10 10 8 7 6 6 6 6 5 3 3 4 2 1 1 1 0 2 1 4 6 4 6 3 2 6 5 4 5 5 5 5 4 6 5 3 3 4 4 4 4 4 5 4 5 5
5 7 5 6 8 9 8 7 7 8 7 6 8 9 7 6 6 5 6 7 6 6 7 6 7 9 10 10 10 10 10 10 9 9 9 9 9 10 9 9 9 8 8 10 9 10 8 7 6 4 3 3 1 2 1 1 0 0 1 2 3 7 4 3 2 3 5 5 3 4 3 4 8 4 3 3 6 5 4 4 4 4 5 4 5
7 7 7 7 6 7 6 8 8 7 7 6 6 5 7 7 8 9 9 9 6 5 7 9 10 12 12 10 10 9 10 9 10 9 9 9 9 9 8 8 9 8 8 9 10 10 9 9 8 6 3 3 4 3 2 2 1 3 5 2 3 1 8 2 3 6 3 5 2 4 3 6 5 3 1 4 6 5 6 4 5 6 5 5 5
6 6 6 6 5 6 6 7 7 7 7 7 7 4 6 6 6 7 6 6 8 9 10 11 9 8 9 11 9 8 9 9 9 9 9 9 9 8 8 8 9 8 8 9 8 7 7 6 8 8 8 4 5 3 2 2 2 3 2 3 4 2 2 4 9 8 2 2 2 2 3 4 4 4 4 6 5 6 6 5 6 5 6 6 5
6 5 4 4 4 5 6 6 7 8 8 7 6 8 8 8 7 8 9 9 10 9 10 7 7 8 7 4 9 9 9 9 9 9 9 8 9 8 8 9 8 8 7 7 6 7 8 8 7 5 8 7 3 4 5 4 2 2 1 1 1 3 6 5 5 7 3 3 6 3 4 4 3 4 4 5 7 7 4 7 5 7 6 6 6
6 4 4 5 5 6 6 7 8 7 7 8 7 9 11 11 12 10 8 8 9 6 3 3 5 5 6 8 8 9 10 10 10 9 9 9 8 8 8 8 8 7 7 8 8 7 6 6 6 7 6 6 6 7 6 6 5 4 5 3 3 2 1 3 4 5 12 3 1 4 6 4 4 3 5 5 6 6 6 5 7 7 7 6 6
4 4 5 5 6 6 7 8 8 8 7 7 9 8 11 9 10 10 9 9 9 7 5 5 5 5 9 9 7 8 9 10 10 10 10 9 9 9 9 8 9 7 7 7 7 6 6 6 6 5 6 6 6 6 4 6 5 4 5 5 4 3 1 2 3 4 5 11 14 2 3 6 4 4 5 6 7 6 7 6 7 7 6 7 7
4 4 4 4 4 5 7 8 10 9 7 8 10 9 9 9 9 9 11 7 7 6 5 6 7 7 11 9 10 9 9 10 10 10 10 10 9 9 9 9 9 8 7 7 7 7 7 7 8 8 7 6 6 4 5 5 5 4 5 5 5 4 4 3 2 0 2 6 10 13 13 5 4 5 7 5 6 6 6 7 7 6 7 7 7
3 3 4 4 4 4 8 11 10 8 7 9 10 11 10 9 11 10 12 8 6 6 6 8 7 6 10 9 8 9 9 9 10 10 11 10 10 9 9 9 9 8 8 8 8 8 8 7 6 5 5 6 4 5 5 4 4 4 4 2 3 4 4 4 2 4 2 5 7 10 12 15 17 6 2 5 6 6 6 6 6 6 7 8 7
4 4 4 4 4 6 8 13 8 7 8 9 10 11 9 9 10 10 10 9 6 7 9 9 8 9 9 8 8 7 7 8 8 9 10 9 9 9 9 9 8 8 8 8 8 7 7 6 6 6 8 8 6 6 5 3 3 4 4 4 4 3 2 2 3 3 2 4 7 7 8 10 12 18 8 2 6 7 7 5 6 7 7 8 8
Wind_Direction
231 204 188 195 204 192 180 178 171 167 165 173 166 161 152 146 146 144 141 139 140 135 131 129 128 126 124 124 120 120 120 113 112 111 107 104 97 93 92 93 100 82 86 90 89 86 82 74 72 71 70 67 66 62 60 56 53 52 51 50 51 50 49 49 48 45 35 37 53 65 70 73 75 77 76 74 73 60 48 44 42 32 44 50 54
185 202 191 187 196 194 178 181 174 172 170 176 174 166 155 149 148 147 145 144 142 141 139 134 132 132 132 128 124 123 123 119 116 109 101 93 80 76 72 67 65 90 94 94 91 83 74 68 65 62 57 55 54 52 50 48 45 44 43 43 45 47 46 48 48 44 38 35 38 37 53 71 71 73 74 73 69 61 47 41 44 39 41 57 55
160 180 183 185 190 189 176 183 175 175 174 178 176 169 156 152 152 151 149 149 145 146 144 141 135 137 133 129 127 124 121 119 110 105 97 89 77 71 67 59 68 76 96 93 89 81 75 69 63 58 52 50 46 42 42 42 40 38 37 37 38 39 41 41 42 45 42 38 37 35 30 54 76 74 74 73 71 64 54 46 49 44 52 59 58
159 176 177 181 186 186 177 180 178 177 177 182 174 164 155 155 156 153 151 150 149 146 145 143 142 142 137 136 132 130 130 124 117 110 107 97 86 73 64 63 67 89 93 97 84 82 75 68 60 55 51 48 46 42 38 35 36 35 34 34 33 32 33 35 38 40 44 41 39 41 35 25 34 77 73 72 69 65 59 55 55 59 58 60 58
161 166 175 176 180 185 180 183 177 174 177 179 174 164 160 158 160 157 152 153 154 152 147 147 151 146 147 144 144 143 141 137 134 127 119 105 94 82 77 71 74 89 95 96 86 81 77 69 58 53 52 47 46 42 38 33 31 32 33 34 33 28 28 33 41 46 53 58 49 48 32 23 10 79 84 79 74 69 62 62 59 59 52 53 60
161 162 174 178 178 183 182 187 176 176 177 174 171 164 165 163 161 162 158 158 158 157 154 148 154 155 155 149 148 150 146 140 137 133 121 110 96 98 96 93 92 97 94 96 92 86 82 76 61 53 52 48 44 41 36 33 34 33 34 36 36 33 34 39 48 57 72 70 56 50 32 28 28 6 100 88 88 82 71 63 62 63 61 53 44
163 160 169 179 182 183 184 186 179 175 180 174 170 168 168 166 165 166 165 163 162 160 164 153 159 162 159 156 152 150 148 144 142 137 128 115 111 107 106 99 108 109 108 101 93 87 83 79 68 53 46 48 43 40 37 33 32 35 39 42 48 48 47 45 50 64 67 65 65 57 40 31 21 10 58 93 85 83 74 64 62 63 63 58 52
148 166 171 177 181 189 187 185 181 176 179 174 171 172 171 169 169 168 171 167 167 167 167 161 165 158 168 160 159 154 152 148 145 136 136 124 121 111 107 115 120 121 112 105 93 82 81 82 75 62 44 40 37 33 34 35 35 38 40 43 55 63 63 62 60 68 73 63 58 63 45 25 15 13 16 66 74 70 69 68 69 64 61 65 61
162 176 171 175 184 186 191 187 182 177 180 168 172 173 178 173 172 173 173 171 170 170 169 169 170 163 162 166 160 161 154 155 145 140 135 127 119 117 104 113 119 119 119 116 94 83 77 81 81 61 49 44 38 32 31 33 36 41 42 44 49 57 70 73 70 67 64 67 66 70 56 37 18 10 41 74 72 73 60 45 37 60 57 58 67
159 172 173 171 183 191 191 191 186 179 183 173 171 175 184 176 175 178 178 179 175 174 170 175 174 168 166 168 168 168 169 167 160 146 140 131 124 115 108 116 126 128 120 111 93 79 79 80 73 67 60 53 46 42 36 34 36 42 45 46 47 51 65 76 79 75 75 68 58 64 37 45 12 17 60 73 79 70 53 42 43 37 56 53 63
146 165 168 171 181 196 198 195 190 184 186 175 174 177 188 177 177 182 186 187 181 183 173 182 178 175 171 173 173 173 178 174 170 156 148 145 151 149 132 130 134 139 122 110 95 91 49 66 58 69 71 60 52 47 40 37 39 41 47 48 46 51 56 54 62 59 65 72 69 52 25 35 34 348 90 76 74 71 54 41 32 48 81 82 78
148 147 164 163 179 196 205 201 201 189 190 181 177 181 191 184 184 188 192 192 193 196 186 189 187 184 180 181 178 181 182 183 173 164 154 149 175 160 145 149 143 143 110 56 45 28 2 67 79 84 71 62 57 52 43 39 44 45 50 51 49 53 53 53 54 50 50 51 59 27 8 17 13 64 85 77 73 73 78 68 49 31 72 86 85
152 158 158 161 172 195 206 205 207 197 193 187 184 184 197 192 192 192 195 196 197 199 196 197 197 193 191 187 191 190 192 184 179 166 158 153 165 157 157 139 137 92 71 64 51 51 37 91 93 85 71 62 59 54 50 44 46 52 58 61 59 59 56 56 51 52 48 48 45 16 1 358 342 284 101 91 78 68 67 64 59 49 62 79 86
156 169 171 166 173 195 201 210 208 204 195 188 188 189 198 195 196 197 198 198 201 199 201 201 204 203 201 200 200 201 191 192 188 172 162 157 167 156 144 148 114 97 90 76 70 65 64 70 89 86 69 61 54 46 49 45 50 54 66 70 68 64 60 54 51 49 47 38 28 10 8 351 314 287 106 92 74 60 63 67 66 64 57 62 82
169 178 177 167 175 189 199 207 210 210 201 193 189 193 200 195 195 202 202 198 202 199 209 203 208 209 210 207 210 213 192 180 192 189 167 168 169 163 155 144 130 126 112 91 85 99 37 193 88 77 73 67 51 39 37 40 48 55 66 72 66 61 59 58 49 42 40 30 11 9 3 345 328 318 97 74 60 71 54 55 58 59 62 65 65
173 180 168 179 177 181 195 209 210 210 208 197 193 195 199 198 193 203 204 205 202 208 212 213 210 212 216 221 218 229 182 187 195 193 183 175 176 171 169 154 152 150 127 105 27 28 212 70 102 88 85 73 59 38 29 32 42 50 65 68 66 65 56 63 55 42 32 28 10 12 358 348 336 308 154 98 52 58 55 43 42 44 35 49 57
163 150 169 189 179 181 192 206 211 211 213 205 194 196 198 203 193 198 203 203 200 209 209 214 213 216 219 216 222 197 167 182 202 200 191 185 189 180 175 165 159 153 128 134 353 354 82 111 104 103 93 79 60 50 23 24 35 46 58 61 62 58 52 54 57 35 31 26 23 5 352 346 348 342 259 87 84 66 40 33 16 19 14 23 31
8 34 196 224 202 198 195 200 207 211 215 215 208 196 196 200 198 194 199 201 195 205 214 215 215 215 219 216 165 164 176 183 200 221 209 189 210 190 166 176 168 147 137 39 1 100 105 106 107 102 88 79 63 48 37 25 33 41 48 55 55 52 47 50 51 25 24 24 14 0 3 344 18 25 54 154 137 70 54 30 11 8 355 338 325
25 17 2 14 332 331 264 221 212 204 207 211 209 210 201 197 195 195 197 198 198 204 210 212 210 207 196 177 118 151 165 168 190 213 198 183 213 170 183 177 164 151 131 32 335 122 114 114 115 101 90 77 69 52 37 32 33 37 46 54 52 49 45 43 39 30 22 20 8 8 348 351 26 41 46 53 78 85 63 43 22 13 359 345 345
63 45 11 2 346 330 296 258 219 210 201 203 200 200 210 205 195 195 194 195 198 204 207 205 196 190 181 145 126 141 164 164 180 198 190 195 183 195 178 163 172 146 63 43 73 124 125 121 117 110 97 85 73 58 41 27 38 42 47 52 49 44 39 31 36 34 23 15 9 3 351 358 26 43 50 57 58 52 50 21 353 5 351 347 346
9 14 69 324 326 277 234 224 231 220 208 200 196 193 196 202 207 197 195 193 194 197 205 205 195 186 183 136 119 134 163 154 169 180 182 181 178 181 176 173 146 101 92 86 102 126 130 128 121 112 103 91 74 59 39 32 33 38 46 49 46 44 22 28 28 25 26 8 6 350 0 1 16 9 9 21 18 26 9 6 341 313 334 346 336
334 329 336 327 340 225 213 214 225 225 219 208 196 190 184 190 196 199 200 197 196 195 195 193 189 181 164 146 142 158 158 162 168 169 180 180 178 182 172 171 154 124 120 113 126 140 135 132 123 114 105 89 77 58 44 26 26 27 37 48 47 33 19 21 29 20 16 352 358 341 4 14 19 6 355 321 357 2 360 343 336 326 320 325 327
350 344 325 341 317 292 239 217 207 212 214 212 205 193 182 180 193 195 191 192 189 192 193 186 181 177 169 164 163 164 157 167 166 162 179 199 185 179 174 190 151 144 142 143 153 139 137 128 120 106 94 88 75 70 65 46 24 16 30 37 42 27 16 28 29 25 8 331 325 338 354 12 0 350 282 289 349 353 331 323 319 332 341 333 323
336 330 315 321 341 322 291 243 223 203 208 206 203 191 187 178 185 187 187 186 185 190 194 185 187 183 180 176 178 160 168 172 185 172 175 186 212 211 183 174 62 237 131 118 118 129 130 115 107 100 87 85 90 64 70 59 38 18 31 32 27 12 24 8 10 4 355 324 312 330 349 358 357 336 301 251 311 116 329 296 289 289 285 330 335
322 311 329 334 331 331 321 295 252 218 206 207 198 196 182 181 185 184 181 184 191 189 190 188 192 192 190 186 183 180 167 173 173 172 189 179 194 190 192 133 140 215 126 119 105 108 94 100 84 79 96 108 86 72 70 53 29 25 23 19 15 6 8 1 353 349 349 322 305 332 339 343 346 338 315 286 274 292 279 282 272 259 270 287 292
331 352 341 330 331 326 317 297 276 223 204 201 201 184 177 190 186 188 181 186 205 212 214 235 181 179 192 192 179 175 161 144 144 161 206 309 202 178 250 179 140 124 111 132 122 130 111 103 110 114 105 89 100 106 87 89 55 14 8 7 14 359 353 344 349 346 333 335 318 323 326 328 324 329 321 295 263 253 269 269 267 264 258 296 295
344 335 329 328 323 326 320 310 278 242 206 191 186 177 185 179 174 167 188 193 219 249 232 184 194 247 217 174 168 172 166 155 185 146 203 146 229 316 186 185 161 151 186 156 115 105 121 132 141 138 127 112 100 91 87 89 85 48 360 349 355 359 350 337 339 333 329 334 313 317 323 317 313 306 301 294 276 250 249 251 255 255 246 239 276
339 342 342 334 333 330 322 311 281 248 215 185 180 178 170 166 163 161 196 240 215 268 200 292 324 168 171 235 243 205 185 173 163 170 186 146 252 178 166 236 101 133 181 164 121 129 146 143 139 127 130 120 129 96 83 73 83 84 25 341 338 342 341 326 315 311 318 332 324 319 323 318 308 301 300 290 291 273 242 251 246 252 265 226 216
360 349 338 339 338 332 328 328 290 231 235 202 188 157 146 155 155 167 192 156 222 232 274 122 13 103 77 203 188 187 145 129 155 274 178 162 173 212 163 126 319 191 162 166 150 157 141 153 165 160 146 147 142 132 86 61 66 75 75 344 338 333 337 334 323 318 319 341 320 318 324 320 310 304 298 292 288 290 262 245 253 244 253 257 222
349 333 342 341 335 336 341 347 325 191 161 177 130 110 117 145 151 155 156 159 208 248 191 310 84 96 93 125 156 183 168 156 166 139 142 172 178 195 277 194 155 228 223 139 134 166 166 142 146 146 156 166 175 175 118 81 37 52 74 41 322 316 313 314 319 321 317 329 328 328 328 326 323 312 306 307 301 288 284 260 254 257 254 271 243
343 352 350 345 335 344 352 359 0 39 86 93 68 66 76 88 82 64 60 187 183 172 278 253 284 268 163 164 156 148 142 133 127 128 149 167 163 152 198 262 188 179 208 136 119 142 127 142 148 164 178 174 191 136 137 224 337 10 70 57 297 346 321 323 318 321 323 321 326 325 324 327 323 320 316 309 301 297 289 277 260 263 273 261 256
357 351 345 335 346 356 355 5 8 23 60 75 93 94 94 103 101 100 185 334 152 230 239 225 243 255 224 173 187 145 146 129 139 153 169 175 211 200 194 194 198 170 189 164 149 125 128 116 120 127 126 136 133 64 36 5 329 345 357 18 25 8 336 340 336 332 321 321 327 331 330 319 321 320 320 319 312 313 320 317 300 281 285 292 285
343 338 336 347 3 356 0 7 14 29 40 37 42 31 33 38 40 31 15 13 2 350 344 337 319 306 328 280 273 159 166 153 150 157 162 165 157 168 200 239 27 60 58 58 85 103 119 130 114 112 104 99 109 50 34 45 355 331 360 341 6 348 1 360 338 340 328 317 321 328 324 319 315 320 321 321 323 323 325 325 337 344 326 312 304
342 342 349 8 359 0 2 16 21 36 40 47 49 51 50 54 50 47 38 38 29 35 20 17 17 13 20 15 7 359 349 271 165 170 177 169 172 177 194 211 191 147 132 134 128 128 111 122 131 122 119 140 172 242 354 296 298 316 334 331 354 333 348 342 323 301 301 301 313 324 315 314 317 318 317 319 321 326 327 324 328 336 330 320 311
354 1 6 351 5 12 10 30 26 41 43 47 54 58 58 62 60 59 58 55 55 52 38 33 35 27 24 22 17 21 23 20 11 9 11 52 75 171 1 360 42 97 134 142 135 148 166 170 150 144 90 115 163 194 199 244 295 300 306 342 312 321 337 309 306 287 272 270 315 307 311 310 314 319 314 315 318 322 324 324 323 323 321 328 324
7 357 356 0 18 18 17 35 31 41 45 49 55 58 61 64 64 63 64 61 60 55 51 51 51 42 36 35 26 22 17 9 22 58 62 42 57 58 41 61 65 58 37 26 99 176 162 139 157 161 173 216 195 250 172 229 260 276 299 328 332 331 309 302 293 286 275 295 278 284 291 297 302 299 303 310 315 313 316 324 323 320 326 334 328
0 8 8 7 22 17 21 29 30 32 43 51 57 60 60 61 57 55 53 55 52 48 45 40 46 44 47 54 40 42 36 29 22 14 30 37 62 70 55 66 88 93 88 83 59 36 24 360 18 4 359 46 215 290 303 318 291 298 326 319 319 313 293 272 271 274 310 301 301 288 285 287 293 296 289 300 307 306 314 317 322 326 334 330 326
8 16 13 16 24 22 28 31 28 28 34 44 52 61 63 64 62 57 56 54 46 44 39 40 40 33 31 33 30 43 41 42 43 40 45 33 29 30 32 59 70 67 70 78 77 75 67 58 54 51 33 21 4 350 328 343 335 322 317 302 298 307 284 287 281 284 299 289 288 282 270 267 275 270 277 289 287 299 301 308 318 322 323 324 318
16 17 16 16 30 32 36 35 33 26 30 34 41 53 56 65 65 59 55 51 45 45 41 44 36 33 34 28 31 33 29 37 42 43 53 43 40 34 37 23 26 50 68 68 62 64 74 83 85 72 74 78 70 62 355 1 337 316 296 292 308 285 283 283 276 276 267 253 259 263 268 265 256 266 269 267 274 284 292 299 307 309 307 314 317
25 19 20 26 28 32 41 43 32 26 40 46 40 53 56 48 54 51 52 44 48 46 41 41 28 33 28 33 33 35 31 34 39 43 58 54 51 46 43 34 37 48 51 38 27 32 48 72 83 102 82 90 95 113 118 118 269 274 283 298 267 261 274 255 275 264 263 257 253 258 259 262 254 269 268 262 270 265 275 284 290 289 301 306 310
32 21 28 28 28 26 45 43 22 32 47 45 44 44 49 51 54 53 59 41 43 47 48 36 40 36 28 34 34 35 32 33 30 34 33 41 49 49 51 45 50 53 53 46 38 40 31 37 52 33 68 56 23 38 135 148 18 320 328 320 315 255 255 263 261 269 255 264 262 258 266 273 265 266 260 277 277 281 275 276 279 290 291 296 301
15 20 29 23 28 33 50 46 34 44 45 50 62 62 49 61 85 71 72 54 45 44 43 35 36 38 38 33 32 32 35 35 32 36 39 36 37 36 36 32 31 40 58 54 47 43 35 31 29 41 18 53 342 338 297 41 22 34 331 320 322 319 295 231 250 266 297 275 244 246 265 278 281 272 296 292 276 275 279 281 291 288 282 287 288
28 29 15 33 33 40 41 47 43 48 43 43 61 71 68 59 75 73 73 81 63 66 63 49 41 46 40 34 32 31 31 36 32 36 43 39 43 46 41 38 37 31 43 41 35 34 24 27 30 45 4 3 43 340 355 35 304 213 229 320 328 350 327 336 344 289 274 270 256 254 260 262 259 263 285 299 285 291 286 264 267 267 272 272 273
32 25 18 28 36 38 43 51 52 50 48 37 61 75 86 92 81 85 75 73 69 56 65 48 41 40 35 31 33 29 30 37 32 35 43 44 46 51 49 47 44 41 49 48 40 35 25 21 16 20 35 13 359 348 4 357 94 1 343 21 278 47 319 325 314 288 265 272 289 264 243 255 270 306 326 277 267 263 263 264 261 257 257 256 252
31 23 16 22 36 39 43 55 57 57 55 49 51 67 83 72 76 79 76 72 49 43 45 37 34 37 41 34 26 26 32 38 33 34 38 41 41 44 51 50 49 42 49 53 48 43 36 33 26 29 27 24 358 344 355 12 352 11 349 340 341 344 236 290 335 301 346 11 301 275 283 277 283 278 268 269 267 258 262 269 262 267 261 261 262
31 12 4 22 39 49 55 60 62 56 53 52 58 73 69 76 68 60 53 55 55 40 40 34 27 35 42 39 38 34 35 40 36 35 35 37 40 38 44 48 46 42 44 56 50 41 34 34 25 41 34 24 14 22 358 1 350 350 10 7 10 306 325 321 0 306 328 233 277 311 285 270 275 273 265 270 273 272 257 260 265 264 264 260 258
16 358 13 26 38 52 57 60 63 60 54 57 59 78 74 71 75 79 83 76 84 58 52 43 52 43 55 48 43 39 35 38 35 36 34 35 40 38 41 47 49 45 39 48 45 39 35 35 21 41 38 34 39 44 22 356 357 38 25 331 314 275 238 327 299 323 319 325 135 309 301 281 269 266 277 265 270 278 271 256 268 265 266 262 261
357 7 25 24 41 47 57 61 61 61 53 59 64 65 88 88 89 85 77 73 70 74 50 50 49 54 56 44 42 42 38 37 35 33 31 31 36 38 37 42 46 41 42 46 43 29 38 36 40 44 46 42 43 55 37 20 43 335 351 3 1 329 294 270 256 257 283 308 310 266 243 286 307 276 260 271 272 267 277 270 261 265 262 262 256
14 22 20 26 40 48 62 65 61 61 56 63 73 66 78 84 85 88 82 64 70 66 62 50 49 38 53 37 40 35 35 36 37 32 28 28 29 32 32 37 40 34 36 40 37 36 39 38 31 34 39 39 40 33 55 27 23 12 358 360 357 3 337 262 268 319 285 307 300 316 317 299 277 268 270 254 270 262 261 267 263 262 265 260 250
6 23 34 37 43 55 68 67 57 55 57 63 70 67 68 76 80 75 82 73 63 67 61 53 47 35 50 39 34 33 27 29 28 29 27 23 25 24 29 32 32 31 33 32 28 28 25 30 30 42 40 52 35 45 58 38 32 9 27 351 21 342 355 7 36 351 281 207 276 309 313 324 321 303 246 283 272 274 264 264 270 265 262 262 257
18 27 40 47 51 64 71 68 56 57 57 65 71 74 72 71 76 77 79 79 71 69 62 49 42 41 44 37 34 30 31 31 24 26 27 20 21 23 24 25 26 28 30 30 29 25 16 17 16 28 34 33 21 26 37 49 42 30 23 27 17 16 337 312 299 318 307 300 302 292 306 308 302 308 308 248 286 279 274 265 267 264 260 261 261